Regional Weather Roundup
Issued by NWS

Home | Current Version | Previous Version | Text Only | Print | Product List | Glossary Off
Versions: 1 2 3 4 5 6 7 8 9 10 11 12 13 14 15 16 17 18 19 20 21 22 23 24 25 26 27 28

000
ASUS45 KPSR 250510
RWRAZ

ARIZONA HOURLY REGIONAL WEATHER ROUNDUP
NATIONAL WEATHER SERVICE PHOENIX AZ
1000 PM MST TUE MAY 24 2016

NOTE: FAIR INDICATES FEW OR NO CLOUDS BELOW 12,000 FEET WITH NO
SIGNIFICANT WEATHER AND/OR OBSTRUCTIONS TO VISIBILITY.

AZZ001>003-036-250600-
NORTHWEST ARIZONA

CITY           SKY/WX    TMP DP  RH WIND       PRES   REMARKS
BULLHEAD CITY  CLEAR     79  27  14 SE22G28   29.85R
KINGMAN          N/A     59  23  25 S9        29.97
$$

AZZ004>008-015-016-018-250600-
NORTH CENTRAL ARIZONA

CITY           SKY/WX    TMP DP  RH WIND       PRES   REMARKS
GRAND CANYON   MOCLDY    47  15  27 SW5       30.10R
WILLIAMS       PTCLDY    52  16  24 S9G15     30.19R
PRESCOTT       PTCLDY    57  21  24 S5        30.06R
FLAGSTAFF      PTCLDY    49  23  36 SW9       30.13R
PAYSON         CLEAR     59  25  27 CALM      30.10S
PAGE           CLEAR     65  21  18 VRB6      29.95R
$$

AZZ009>014-017-250600-
NORTHEAST ARIZONA

CITY           SKY/WX    TMP DP  RH WIND       PRES   REMARKS
WINSLOW        CLEAR     61  24  24 S13G21    30.05R
SAINT JOHNS    CLEAR     61  13  15 SW8       30.09R
WINDOW ROCK    CLEAR     48  10  21 SE5       30.13R
SHOW LOW       CLEAR     50  14  23 S13       30.13S
$$

AZZ023-250600-
GREATER PHOENIX AREA

CITY           SKY/WX    TMP DP  RH WIND       PRES   REMARKS
PHOENIX        CLEAR     81  23  11 W8        29.89R
BUCKEYE        CLEAR     72  18  13 NE3       29.92R
LUKE AFB       CLEAR     76  24  14 W3        29.89R
DEER VALLEY    CLEAR     75  18  11 NW5       29.91R
SCOTTSDALE     CLEAR     77  22  13 W3        29.92R
MESA-GATEWAY   CLEAR     75  28  17 NW5       29.92R
$$

AZZ027-028-250600-
SOUTHWEST MARICOPA COUNTY AND PINAL COUNTY

CITY           SKY/WX    TMP DP  RH WIND       PRES   REMARKS
CASA GRANDE    CLEAR     75  30  19 W7        29.93R
GILA BEND      CLEAR     73  22  15 S5        29.90R
$$

AZZ503-504-507>509-250600-
SOUTHEAST ARIZONA

CITY           SKY/WX    TMP DP  RH WIND       PRES   REMARKS
TUCSON         CLEAR     75  32  20 VRB3      30.00R
DAVIS-MONTHAN  CLEAR     74  32  21 W7        29.99R
NOGALES        CLEAR     64  25  22 E3        30.07R
SIERRA VISTA   CLEAR     66  16  14 S9        30.11R
DOUGLAS        CLEAR     66  19  16 W8        30.08R
SAFFORD        CLEAR     74  21  13 NW13      29.96R
$$

AZZ020-021-025-026-031-250600-
SOUTHWEST ARIZONA

CITY           SKY/WX    TMP DP  RH WIND       PRES   REMARKS
YUMA           PTCLDY    71  42  35 NW15G21   29.90R
$$

CAZ031-033-041-043-047-048-061-250600-
SOUTHERN CALIFORNIA

CITY           SKY/WX    TMP DP  RH WIND       PRES   REMARKS
DOWNTOWN L.A.  PTCLDY    60  52  74 VRB3      30.05R
L.A. AIRPORT   PTCLDY    60  52  74 W9        30.05R
SAN DIEGO      MOCLDY    64  52  64 W7        30.08R
BURBANK        CLEAR     57  50  77 S6        30.04R
ONTARIO        MOCLDY    58  50  75 SW10      30.04R
RIVERSIDE      PTCLDY    58  50  75 VRB5      30.04R
PALM SPRINGS     N/A    N/A N/A N/A MISG      29.90R
EL CENTRO NAS  PTCLDY    68  40  35 W18       29.92R
IMPERIAL       PTCLDY    69  40  34 W16       29.89R
BLYTHE         PTCLDY    71  44  37 S16       29.88R
NEEDLES        PTCLDY    78  33  19 SW14      29.85R
$$

NVZ020-UTZ003-250600-
SOUTHERN NEVADA-UTAH

CITY           SKY/WX    TMP DP  RH WIND       PRES   REMARKS
LAS VEGAS      CLEAR     71  30  21 SW9       29.84R
SALT LAKE CITY MOCLDY    58  40  51 SE5       29.93R
$$

NMZ009-TXZ055-250600-
NEW MEXICO-WEST TEXAS

CITY           SKY/WX    TMP DP  RH WIND       PRES   REMARKS
ALBUQUERQUE    CLEAR     68  14  12 CALM      30.04R
EL PASO        PTCLDY    81  12   7 W15       29.99R
$$


........................KEY........................
SKY/WX - SKY CONDITION/WEATHER
TMP    - TEMPERATURE IN FAHRENHEIT
DP     - DEW POINT IN FAHRENHEIT
RH     - RELATIVE HUMIDITY IN PERCENT
WIND   - DIRECTION AND SPEED IN MILES PER HOUR (MPH)
VRB    - VARIABLE WIND DIRECTION
PRES   - MEAN SEA LEVEL PRESSURE IN INCHES OF MERCURY
         F - FALLING PRESSURE   R - RISING PRESSURE
         S - STEADY PRESSURE
VSB    - VISIBILITY IN MILES
HX     - HEAT INDEX IN FAHRENHEIT
WCI    - WIND CHILL INDEX IN FAHRENHEIT
TC     - TEMPERATURE IN CELSIUS WHICH IS ALSO KNOWN AS
         TEMPERATURE IN CENTIGRADE
AFB    - AIR FORCE BASE
         LUKE AFB IS LUKE AIR FORCE BASE
         DAVIS-MONTHAN IS DAVIS-MONTHAN AIR FORCE BASE
NAS    - NAVAL AIR STATION
         EL CENTRO NAS IS EL CENTRO NAVAL AIR STATION
N/A    - NOT AVAILABLE





USA.gov is the U.S. government's official web portal to all federal, state and local government web resources and services.